| time (UTC) | temp F | wind direction | speed MPH | gust MPH | rain 1hr in | rain 24hr in | rain mn in | humidity % | barometer mb |
| 20260904121517 | 51 | 136 | 0.0 | 0.0 | 0.00 | 0.09 | 0.00 | 92 | 1002.4 |
| 20260904120017 | 51 | 136 | 0.0 | 0.0 | 0.00 | 0.17 | 0.00 | 92 | 1002.3 |
| 20260904114513 | 52 | 136 | 0.0 | 0.0 | 0.00 | 0.17 | 0.00 | 92 | 1002.1 |
| 20260904113017 | 52 | 136 | 0.0 | 0.0 | 0.00 | 0.17 | 0.00 | 92 | 1002.0 |
| 20260904111508 | 52 | 233 | 0.0 | 0.0 | 0.00 | 0.17 | 0.00 | 91 | 1001.8 |
| 20260904110019 | 53 | 128 | 0.0 | 0.0 | 0.00 | 0.21 | 0.00 | 91 | 1001.7 |
| 20260904104505 | 53 | 118 | 0.0 | 0.0 | 0.00 | 0.21 | 0.00 | 91 | 1001.5 |
| 20260904103003 | 53 | 117 | 0.0 | 0.0 | 0.00 | 0.21 | 0.00 | 91 | 1001.5 |
| 20260904101501 | 53 | 119 | 0.0 | 1.0 | 0.00 | 0.21 | 0.00 | 91 | 1001.3 |
| 20260904094556 | 54 | 102 | 0.0 | 0.0 | 0.00 | 0.21 | 0.00 | 90 | 1000.7 |
| 20260904093112 | 54 | 72 | 0.0 | 0.0 | 0.00 | 0.21 | 0.00 | 90 | 1000.6 |
| 20260904091552 | 54 | 236 | 0.0 | 1.0 | 0.00 | 0.21 | 0.00 | 90 | 1000.5 |
| 20260904090053 | 54 | 208 | 0.0 | 1.0 | 0.00 | 0.21 | 0.00 | 89 | 1000.4 |
| 20260904084550 | 55 | 211 | 0.0 | 0.0 | 0.00 | 0.21 | 0.00 | 89 | 1000.3 |
| 20260904083052 | 55 | 207 | 0.0 | 1.0 | 0.00 | 0.21 | 0.00 | 88 | 1000.4 |
| 20260904081548 | 55 | 216 | 0.0 | 0.0 | 0.00 | 0.21 | 0.00 | 88 | 1000.0 |
| 20260904080046 | 54 | 136 | 0.0 | 0.0 | 0.00 | 0.21 | 0.00 | 87 | 1000.2 |
| 20260904074545 | 54 | 218 | 0.0 | 0.0 | 0.00 | 0.21 | 0.00 | 86 | 1000.0 |
| 20260904073040 | 54 | 209 | 0.0 | 1.0 | 0.00 | 0.21 | 0.00 | 85 | 999.8 |
| 20260904071540 | 55 | 204 | 0.0 | 2.0 | 0.00 | 0.21 | 0.00 | 85 | 999.6 |
| 20260904070047 | 55 | 109 | 0.0 | 1.0 | 0.00 | 0.21 | 0.00 | 84 | 999.7 |
| 20260904064544 | 55 | 167 | 0.0 | 1.0 | 0.00 | 0.21 | 0.00 | 83 | 999.8 |
| 20260904063036 | 55 | 95 | 0.0 | 1.0 | 0.00 | 0.21 | 0.00 | 83 | 999.4 |
| 20260904061542 | 56 | 151 | 0.0 | 2.0 | 0.00 | 0.21 | 0.00 | 82 | 999.2 |
| 20260904060032 | 56 | 165 | 0.0 | 2.0 | 0.00 | 0.21 | 0.21 | 83 | 999.1 |
| 20260904054532 | 56 | 195 | 0.0 | 1.0 | 0.00 | 0.21 | 0.21 | 85 | 998.9 |
| 20260904053025 | 56 | 134 | 0.0 | 1.0 | 0.00 | 0.21 | 0.21 | 86 | 998.7 |
| 20260904051526 | 56 | 135 | 0.0 | 1.0 | 0.00 | 0.21 | 0.21 | 86 | 998.6 |
| 20260904050023 | 56 | 116 | 0.0 | 1.0 | 0.00 | 0.21 | 0.21 | 86 | 998.6 |
| 20260904044530 | 56 | 129 | 0.0 | 0.0 | 0.00 | 0.21 | 0.21 | 87 | 998.5 |
| 20260904043022 | 56 | 141 | 0.0 | 0.0 | 0.00 | 0.21 | 0.21 | 87 | 998.4 |
| 20260904041519 | 56 | 131 | 0.0 | 0.0 | 0.00 | 0.21 | 0.21 | 87 | 998.3 |
| 20260904040016 | 57 | 103 | 0.0 | 0.0 | 0.00 | 0.21 | 0.21 | 86 | 998.1 |
| 20260904034533 | 58 | 104 | 0.0 | 0.0 | 0.00 | 0.21 | 0.21 | 85 | 998.0 |
| 20260904033012 | 58 | 103 | 0.0 | 1.0 | 0.00 | 0.21 | 0.21 | 85 | 998.1 |
| 20260904031513 | 59 | 105 | 0.0 | 1.0 | 0.00 | 0.21 | 0.21 | 85 | 998.1 |
| 20260904030009 | 59 | 105 | 0.0 | 1.0 | 0.00 | 0.21 | 0.21 | 85 | 997.9 |
| 20260904024507 | 60 | 198 | 0.0 | 2.0 | 0.00 | 0.21 | 0.21 | 85 | 997.5 |
| 20260904023004 | 59 | 104 | 0.0 | 3.0 | 0.00 | 0.21 | 0.21 | 85 | 997.3 |
| 20260904021504 | 60 | 44 | 0.0 | 1.0 | 0.00 | 0.21 | 0.21 | 86 | 997.1 |
| 20260904020003 | 60 | 44 | 0.0 | 0.0 | 0.00 | 0.21 | 0.21 | 86 | 997.1 |
| 20260904014502 | 60 | 44 | 0.0 | 2.0 | 0.00 | 0.21 | 0.21 | 85 | 997.0 |
| 20260904013001 | 60 | 43 | 0.0 | 0.0 | 0.00 | 0.21 | 0.21 | 85 | 996.9 |
| 20260904011505 | 61 | 44 | 0.0 | 1.0 | 0.00 | 0.21 | 0.21 | 84 | 996.8 |
| 20260904010002 | 61 | 43 | 0.0 | 1.0 | 0.00 | 0.21 | 0.21 | 84 | 996.8 |
| 20260904004500 | 62 | 44 | 0.0 | 2.0 | 0.00 | 0.21 | 0.21 | 84 | 996.4 |
| 20260904003100 | 62 | 43 | 0.0 | 3.0 | 0.00 | 0.21 | 0.21 | 84 | 996.3 |
| 20260904001600 | 61 | 43 | 0.0 | 1.0 | 0.00 | 0.21 | 0.21 | 84 | 996.4 |
| 20260903234559 | 60 | 42 | 0.0 | 1.0 | 0.00 | 0.21 | 0.21 | 87 | 996.1 |
| 20260903233058 | 60 | 42 | 0.0 | 2.0 | 0.00 | 0.21 | 0.21 | 89 | 996.2 |
| 20260903231558 | 60 | 43 | 0.0 | 2.0 | 0.00 | 0.21 | 0.21 | 88 | 996.2 |
| 20260903230057 | 59 | 39 | 0.0 | 0.0 | 0.00 | 0.21 | 0.21 | 91 | 996.1 |
| 20260903224557 | 59 | 39 | 0.0 | 1.0 | 0.00 | 0.21 | 0.21 | 91 | 996.2 |
| 20260903223055 | 60 | 14 | 0.0 | 1.0 | 0.00 | 0.21 | 0.21 | 89 | 996.0 |
| 20260903221555 | 61 | 103 | 0.0 | 3.0 | 0.00 | 0.21 | 0.21 | 84 | 996.0 |
| 20260903220105 | 62 | 161 | 0.0 | 2.0 | 0.00 | 0.21 | 0.21 | 82 | 995.7 |
| 20260903214556 | 62 | 205 | 0.0 | 2.0 | 0.00 | 0.21 | 0.21 | 82 | 995.4 |
| 20260903213059 | 63 | 190 | 0.0 | 1.0 | 0.00 | 0.21 | 0.21 | 82 | 995.6 |
| 20260903211558 | 64 | 113 | 0.0 | 1.0 | 0.00 | 0.21 | 0.21 | 79 | 995.4 |
| 20260903210104 | 65 | 99 | 0.0 | 1.0 | 0.00 | 0.21 | 0.21 | 77 | 995.3 |
| 20260903204552 | 65 | 95 | 0.0 | 2.0 | 0.00 | 0.21 | 0.21 | 76 | 995.3 |
| 20260903203113 | 66 | 77 | 0.0 | 1.0 | 0.00 | 0.21 | 0.21 | 73 | 995.2 |
| 20260903201551 | 66 | 205 | 0.0 | 4.0 | 0.00 | 0.21 | 0.21 | 76 | 995.1 |
| 20260903200051 | 68 | 196 | 0.0 | 0.0 | 0.00 | 0.21 | 0.21 | 71 | 994.7 |
| 20260903194555 | 70 | 207 | 0.0 | 1.0 | 0.00 | 0.21 | 0.21 | 70 | 994.7 |
| 20260903193049 | 71 | 203 | 0.0 | 2.0 | 0.00 | 0.21 | 0.21 | 61 | 994.7 |
| 20260903191553 | 71 | 210 | 0.0 | 0.0 | 0.00 | 0.21 | 0.21 | 67 | 994.9 |
| 20260903190049 | 73 | 183 | 0.0 | 2.0 | 0.00 | 0.21 | 0.21 | 65 | 994.7 |
| 20260903184545 | 71 | 124 | 0.0 | 3.0 | 0.00 | 0.21 | 0.21 | 69 | 994.7 |
| 20260903183045 | 70 | 205 | 0.0 | 1.0 | 0.00 | 0.21 | 0.21 | 72 | 994.4 |
| 20260903181538 | 68 | 56 | 0.0 | 0.0 | 0.00 | 0.21 | 0.21 | 76 | 994.4 |
| 20260903180036 | 66 | 57 | 0.0 | 0.0 | 0.00 | 0.21 | 0.21 | 79 | 994.6 |
| 20260903174535 | 67 | 57 | 0.0 | 0.0 | 0.00 | 0.21 | 0.21 | 80 | 994.9 |
| 20260903173032 | 65 | 58 | 0.0 | 0.0 | 0.00 | 0.21 | 0.21 | 82 | 994.9 |
| 20260903171545 | 65 | 59 | 0.0 | 0.0 | 0.00 | 0.21 | 0.21 | 85 | 994.8 |
| 20260903170031 | 64 | 58 | 0.0 | 0.0 | 0.00 | 0.21 | 0.21 | 87 | 994.7 |
| 20260903164533 | 63 | 59 | 0.0 | 0.0 | 0.00 | 0.21 | 0.21 | 88 | 994.8 |
| 20260903163027 | 62 | 57 | 0.0 | 0.0 | 0.00 | 0.21 | 0.21 | 91 | 995.2 |
| 20260903161529 | 62 | 57 | 0.0 | 0.0 | 0.00 | 0.21 | 0.21 | 92 | 995.2 |
| 20260903160032 | 61 | 57 | 0.0 | 1.0 | 0.00 | 0.21 | 0.21 | 92 | 995.4 |
| 20260903154534 | 61 | 58 | 0.0 | 0.0 | 0.00 | 0.21 | 0.21 | 94 | 995.3 |
| 20260903153027 | 60 | 44 | 0.0 | 0.0 | 0.00 | 0.21 | 0.21 | 96 | 995.3 |
| 20260903151524 | 59 | 329 | 0.0 | 1.0 | 0.00 | 0.21 | 0.21 | 96 | 994.9 |
| 20260903150026 | 59 | 41 | 0.0 | 1.0 | 0.00 | 0.21 | 0.21 | 96 | 995.1 |
| 20260903144539 | 59 | 56 | 0.0 | 0.0 | 0.01 | 0.21 | 0.21 | 96 | 995.5 |
| 20260903143022 | 60 | 58 | 0.0 | 0.0 | 0.03 | 0.21 | 0.21 | 96 | 995.6 |
| 20260903141512 | 59 | 58 | 0.0 | 0.0 | 0.05 | 0.21 | 0.21 | 96 | 995.8 |
| 20260903140010 | 59 | 58 | 0.0 | 0.0 | 0.06 | 0.21 | 0.21 | 96 | 995.7 |
| 20260903134505 | 59 | 58 | 0.0 | 0.0 | 0.07 | 0.20 | 0.20 | 96 | 995.7 |
| 20260903133007 | 59 | 58 | 0.0 | 0.0 | 0.06 | 0.18 | 0.18 | 96 | 995.9 |
| 20260903131503 | 59 | 57 | 0.0 | 0.0 | 0.04 | 0.17 | 0.17 | 96 | 995.8 |
| 20260903130002 | 59 | 56 | 0.0 | 0.0 | 0.04 | 0.16 | 0.16 | 95 | 995.7 |
| 20260903124502 | 59 | 56 | 0.0 | 0.0 | 0.02 | 0.13 | 0.13 | 95 | 995.9 |
| 20260903123059 | 59 | 56 | 0.0 | 0.0 | 0.05 | 0.13 | 0.13 | 95 | 995.7 |